TimeEST,TemperatureF,Dew PointF,Humidity,Sea Level PressureIn,VisibilityMPH,Wind Direction,Wind SpeedMPH,Gust SpeedMPH,PrecipitationIn,Events,Conditions,WindDirDegrees,DateUTC
12:53 AM,61.0,59.0,93,30.22,10.0,NE,4.6,-,N/A,,Clear,40,2012-12-02 05:53:00
1:53 AM,61.0,59.0,93,30.21,10.0,ENE,5.8,-,N/A,,Clear,60,2012-12-02 06:53:00
2:53 AM,62.1,60.1,93,30.20,10.0,NE,5.8,-,N/A,,Overcast,50,2012-12-02 07:53:00
3:53 AM,62.1,60.1,93,30.19,10.0,ENE,5.8,-,N/A,,Mostly Cloudy,70,2012-12-02 08:53:00
4:53 AM,62.1,60.1,93,30.19,10.0,ENE,5.8,-,N/A,,Clear,60,2012-12-02 09:53:00
5:53 AM,63.0,60.1,90,30.21,10.0,NE,5.8,-,N/A,,Scattered Clouds,50,2012-12-02 10:53:00
6:53 AM,62.1,60.1,93,30.23,10.0,NE,5.8,-,N/A,,Clear,50,2012-12-02 11:53:00
7:53 AM,63.0,61.0,93,30.24,10.0,ENE,5.8,-,N/A,,Overcast,60,2012-12-02 12:53:00
8:53 AM,68.0,63.0,84,30.25,10.0,ENE,5.8,-,N/A,,Clear,70,2012-12-02 13:53:00
9:53 AM,73.0,63.0,71,30.26,10.0,ENE,9.2,-,N/A,,Clear,60,2012-12-02 14:53:00
10:53 AM,78.1,62.1,58,30.25,10.0,East,10.4,19.6,N/A,,Clear,80,2012-12-02 15:53:00
11:53 AM,79.0,61.0,54,30.23,10.0,East,13.8,-,N/A,,Partly Cloudy,100,2012-12-02 16:53:00
12:53 PM,82.0,57.0,42,30.20,10.0,East,10.4,-,N/A,,Scattered Clouds,100,2012-12-02 17:53:00
1:53 PM,82.0,54.0,38,30.18,10.0,ENE,10.4,-,N/A,,Partly Cloudy,60,2012-12-02 18:53:00
2:53 PM,81.0,55.9,42,30.17,10.0,East,11.5,-,N/A,,Partly Cloudy,90,2012-12-02 19:53:00
4:53 PM,79.0,54.0,42,30.17,10.0,NE,9.2,-,N/A,,Clear,50,2012-12-02 21:53:00
5:53 PM,75.0,54.0,48,30.17,10.0,NE,3.5,-,N/A,,Clear,40,2012-12-02 22:53:00
6:53 PM,72.0,55.0,55,30.18,10.0,NE,3.5,-,N/A,,Clear,40,2012-12-02 23:53:00
7:53 PM,68.0,55.9,65,30.20,10.0,East,4.6,-,N/A,,Clear,80,2012-12-03 00:53:00
8:53 PM,66.9,59.0,76,30.21,10.0,East,8.1,-,N/A,,Clear,80,2012-12-03 01:53:00
9:53 PM,66.0,61.0,84,30.21,10.0,East,6.9,-,N/A,,Clear,80,2012-12-03 02:53:00
10:53 PM,64.0,61.0,90,30.21,10.0,East,5.8,-,N/A,,Clear,80,2012-12-03 03:53:00
11:53 PM,63.0,61.0,93,30.20,10.0,East,5.8,-,N/A,,Clear,90,2012-12-03 04:53:00